ARIANE 5 R/B

Last updated on Sun Apr 12 2026 00:02:17 GMT+0000 (Coordinated Universal Time)

1 28499U 04049H 26101.44045587 .00000752 00000+0 89494-4 0 9997 2 28499 98.2675 271.1347 0082920 244.5644 114.6972 14.85332099150657
UTC large
Height (km)
Speed (km/s)
/
Latitude / Longitude
Inclination (degrees)
Orbital Period (minutes)
Azimuth
Elevation
Range (km)
Doppler Factor

Next 0 passes for location: London (51.5072 / 0.1276)

Sorry there are no passes over London.